CEB635 RPLL-RPVP

Flight info

Callsign CEB635
Flight time 0h 53m
Altitude 36000
Route BUCAL2R BUCAL M646 NOMYO NOMYO2W
Aircraft A339/H-SADE1E2E3GHIJ3J5M1P2RWXY/LB2D1

Departure

Time 2026-05-06 09:35
Airport Ninoy Aquino International Airport (RPLL)

Arrival

Time 2026-05-06 10:29
Airport Puerto Princesa International Airport / PAF Antonio Bautista Air Base (RPVP)
Time Latitude Longitude Altitude Speed Heading
2026-05-06 09:13 14.51945 121.01226 47 ft 0 kts 45°
2026-05-06 09:20 14.51942 121.01223 47 ft 1 kts 45°
2026-05-06 09:20 14.51937 121.01218 75 ft 1 kts 45°
2026-05-06 09:20 14.51929 121.01210 64 ft 2 kts 45°
2026-05-06 09:20 14.51919 121.01200 64 ft 2 kts 45°
2026-05-06 09:21 14.51910 121.01190 64 ft 2 kts 45°
2026-05-06 09:21 14.51900 121.01180 64 ft 2 kts 45°
2026-05-06 09:21 14.51891 121.01170 64 ft 2 kts 45°
2026-05-06 09:21 14.51880 121.01162 64 ft 2 kts 65°
2026-05-06 09:22 14.51876 121.01157 64 ft 1 kts 88°
2026-05-06 09:22 14.51873 121.01152 64 ft 0 kts 103°
2026-05-06 09:24 14.51870 121.01160 66 ft 4 kts 110°
2026-05-06 09:24 14.51862 121.01166 64 ft 1 kts 133°
2026-05-06 09:24 14.51860 121.01169 64 ft 1 kts 133°
2026-05-06 09:24 14.51842 121.01189 64 ft 6 kts 132°
2026-05-06 09:25 14.51807 121.01227 66 ft 8 kts 134°
2026-05-06 09:25 14.51766 121.01270 63 ft 9 kts 134°
2026-05-06 09:25 14.51721 121.01318 67 ft 10 kts 134°
2026-05-06 09:25 14.51671 121.01370 72 ft 11 kts 134°
2026-05-06 09:26 14.51617 121.01427 66 ft 11 kts 134°
2026-05-06 09:26 14.51560 121.01489 65 ft 12 kts 133°
2026-05-06 09:26 14.51497 121.01551 64 ft 13 kts 136°
2026-05-06 09:26 14.51432 121.01616 64 ft 13 kts 136°
2026-05-06 09:27 14.51364 121.01684 64 ft 14 kts 136°
2026-05-06 09:27 14.51295 121.01755 66 ft 14 kts 135°
2026-05-06 09:27 14.51225 121.01829 65 ft 15 kts 134°
2026-05-06 09:27 14.51153 121.01904 70 ft 15 kts 135°
2026-05-06 09:28 14.51100 121.01958 64 ft 0 kts 136°
2026-05-06 09:28 14.51095 121.01963 69 ft 4 kts 136°
2026-05-06 09:28 14.51042 121.01983 71 ft 8 kts 187°
2026-05-06 09:28 14.51014 121.01941 66 ft 8 kts 241°
2026-05-06 09:29 14.51002 121.01918 68 ft 12 kts 240°
2026-05-06 09:29 14.50928 121.01787 70 ft 24 kts 240°
2026-05-06 09:29 14.50859 121.01662 66 ft 20 kts 240°
2026-05-06 09:29 14.50790 121.01537 67 ft 20 kts 239°
2026-05-06 09:30 14.50719 121.01410 64 ft 21 kts 240°
2026-05-06 09:30 14.50647 121.01279 72 ft 21 kts 240°
2026-05-06 09:30 14.50590 121.01177 70 ft 16 kts 241°
2026-05-06 09:30 14.50533 121.01076 64 ft 17 kts 240°
2026-05-06 09:31 14.50472 121.00967 66 ft 18 kts 240°
2026-05-06 09:31 14.50408 121.00851 66 ft 19 kts 240°
2026-05-06 09:31 14.50339 121.00726 65 ft 20 kts 240°
2026-05-06 09:31 14.50267 121.00596 65 ft 21 kts 240°
2026-05-06 09:32 14.50192 121.00460 64 ft 22 kts 240°
2026-05-06 09:32 14.50114 121.00322 67 ft 22 kts 240°
2026-05-06 09:32 14.50035 121.00181 65 ft 23 kts 239°
2026-05-06 09:32 14.49955 121.00038 64 ft 21 kts 240°
2026-05-06 09:33 14.49885 120.99973 66 ft 0 kts 182°
2026-05-06 09:33 14.49871 120.99974 66 ft 4 kts 173°
2026-05-06 09:34 14.49832 120.99998 68 ft 9 kts 144°
2026-05-06 09:34 14.49814 121.00058 71 ft 9 kts 81°
2026-05-06 09:34 14.49846 121.00118 66 ft 10 kts 59°
2026-05-06 09:34 14.49860 121.00143 66 ft 2 kts 60°
2026-05-06 09:35 14.49945 121.00296 65 ft 65 kts 59°
2026-05-06 09:35 14.50316 121.00963 67 ft 145 kts 60°
2026-05-06 09:35 14.50906 121.02022 332 ft 187 kts 62°
2026-05-06 09:35 14.51607 121.03225 1021 ft 196 kts 60°
2026-05-06 09:36 14.52246 121.04407 2068 ft 185 kts 65°
2026-05-06 09:36 14.52735 121.05676 2676 ft 199 kts 72°
2026-05-06 09:36 14.53101 121.07100 3120 ft 217 kts 78°
2026-05-06 09:36 14.53359 121.08738 3419 ft 240 kts 84°
2026-05-06 09:37 14.53460 121.10483 3798 ft 252 kts 90°
2026-05-06 09:37 14.53379 121.12311 4224 ft 262 kts 95°
2026-05-06 09:37 14.53085 121.14181 4816 ft 265 kts 102°
2026-05-06 09:37 14.52573 121.16038 5420 ft 270 kts 109°
2026-05-06 09:38 14.51843 121.17838 6005 ft 275 kts 116°
2026-05-06 09:38 14.50894 121.19554 6356 ft 277 kts 122°
2026-05-06 09:38 14.49737 121.21136 6464 ft 276 kts 129°
2026-05-06 09:38 14.48382 121.22563 6678 ft 281 kts 137°
2026-05-06 09:39 14.46684 121.23555 7320 ft 283 kts 162°
2026-05-06 09:39 14.44716 121.23709 7955 ft 289 kts 187°
2026-05-06 09:39 14.42824 121.22986 8551 ft 294 kts 211°
2026-05-06 09:39 14.41181 121.21691 9086 ft 300 kts 220°
2026-05-06 09:40 14.39619 121.20252 9717 ft 303 kts 221°
2026-05-06 09:40 14.38014 121.18810 10193 ft 310 kts 218°
2026-05-06 09:40 14.34451 121.15888 10552 ft 344 kts 216°
2026-05-06 09:41 14.32503 121.14368 10739 ft 358 kts 215°
2026-05-06 09:41 14.30482 121.12801 11072 ft 366 kts 216°
2026-05-06 09:41 14.28450 121.11228 11634 ft 368 kts 215°
2026-05-06 09:41 14.26395 121.09638 12121 ft 371 kts 216°
2026-05-06 09:42 14.24332 121.08039 12691 ft 371 kts 216°
2026-05-06 09:42 14.22256 121.06430 13164 ft 375 kts 216°
2026-05-06 09:42 14.20172 121.04813 13702 ft 377 kts 216°
2026-05-06 09:42 14.18055 121.03168 14008 ft 384 kts 216°
2026-05-06 09:43 14.15908 121.01501 14329 ft 390 kts 216°
2026-05-06 09:43 14.13757 120.99833 15016 ft 382 kts 216°
2026-05-06 09:43 14.11635 120.98187 15550 ft 383 kts 217°
2026-05-06 09:43 14.09508 120.96538 16007 ft 385 kts 216°
2026-05-06 09:44 14.07362 120.94875 16461 ft 386 kts 217°
2026-05-06 09:44 14.05216 120.93212 16913 ft 388 kts 217°
2026-05-06 09:44 14.03054 120.91535 17318 ft 390 kts 217°
2026-05-06 09:44 14.00881 120.89850 17726 ft 392 kts 216°
2026-05-06 09:45 13.98696 120.88157 18149 ft 394 kts 216°
2026-05-06 09:45 13.96502 120.86457 18505 ft 396 kts 216°
2026-05-06 09:45 13.95042 120.85326 18744 ft 397 kts 216°
2026-05-06 09:45 13.92826 120.83609 19084 ft 400 kts 216°
2026-05-06 09:46 13.90600 120.81885 19461 ft 401 kts 216°
2026-05-06 09:46 13.88365 120.80155 19826 ft 403 kts 216°
2026-05-06 09:46 13.85385 120.77849 20315 ft 406 kts 216°
2026-05-06 09:46 13.83118 120.76095 20664 ft 409 kts 216°
2026-05-06 09:47 13.80828 120.74322 20924 ft 414 kts 216°
2026-05-06 09:47 13.78529 120.72545 21375 ft 414 kts 216°
2026-05-06 09:47 13.76223 120.70763 21767 ft 416 kts 216°
2026-05-06 09:47 13.73902 120.68968 22100 ft 419 kts 216°
2026-05-06 09:48 13.71568 120.67164 22474 ft 421 kts 216°
2026-05-06 09:48 13.69980 120.65936 22706 ft 423 kts 216°
2026-05-06 09:48 13.67624 120.64116 23134 ft 424 kts 216°
2026-05-06 09:48 13.64487 120.61694 23625 ft 427 kts 216°
2026-05-06 09:49 13.62912 120.60478 23811 ft 429 kts 216°
2026-05-06 09:49 13.60452 120.58739 24137 ft 430 kts 211°
2026-05-06 09:49 13.57822 120.57187 24488 ft 431 kts 207°
2026-05-06 09:49 13.55151 120.55870 24823 ft 432 kts 204°
2026-05-06 09:50 13.52410 120.54571 25094 ft 435 kts 204°
2026-05-06 09:50 13.49660 120.53252 25439 ft 437 kts 204°
2026-05-06 09:50 13.46904 120.51926 25783 ft 438 kts 204°
2026-05-06 09:50 13.44134 120.50592 26109 ft 440 kts 205°
2026-05-06 09:51 13.41358 120.49255 26435 ft 442 kts 205°
2026-05-06 09:51 13.38566 120.47912 26751 ft 444 kts 205°
2026-05-06 09:51 13.35765 120.46564 27075 ft 445 kts 205°
2026-05-06 09:51 13.32953 120.45213 27395 ft 447 kts 205°
2026-05-06 09:52 13.30131 120.43856 27723 ft 448 kts 205°
2026-05-06 09:52 13.27298 120.42495 28013 ft 451 kts 205°
2026-05-06 09:52 13.24451 120.41128 28320 ft 453 kts 205°
2026-05-06 09:52 13.21589 120.39754 28623 ft 455 kts 205°
2026-05-06 09:53 13.18727 120.38381 28987 ft 455 kts 205°
2026-05-06 09:53 13.15859 120.37004 29309 ft 456 kts 205°
2026-05-06 09:53 13.12968 120.35617 29547 ft 460 kts 205°
2026-05-06 09:53 13.10066 120.34225 29852 ft 462 kts 205°
2026-05-06 09:54 13.07148 120.32825 30127 ft 463 kts 205°
2026-05-06 09:54 13.04222 120.31423 30419 ft 465 kts 205°
2026-05-06 09:54 13.01290 120.30018 30714 ft 466 kts 205°
2026-05-06 09:54 12.98339 120.28604 30954 ft 469 kts 205°
2026-05-06 09:55 12.95373 120.27184 31176 ft 472 kts 205°
2026-05-06 09:55 12.92387 120.25753 31457 ft 474 kts 205°
2026-05-06 09:55 12.89389 120.24318 31716 ft 476 kts 205°
2026-05-06 09:55 12.86383 120.22880 31800 ft 477 kts 205°
2026-05-06 09:56 12.80370 120.20003 31854 ft 477 kts 205°
2026-05-06 09:56 12.74357 120.17127 31854 ft 477 kts 205°
2026-05-06 09:57 12.68342 120.14252 31853 ft 477 kts 205°
2026-05-06 09:57 12.62322 120.11376 31853 ft 478 kts 205°
2026-05-06 09:58 12.56307 120.08504 31854 ft 477 kts 206°
2026-05-06 09:58 12.50294 120.05634 31854 ft 477 kts 206°
2026-05-06 09:59 12.44279 120.02764 31852 ft 477 kts 206°
2026-05-06 09:59 12.38263 119.99897 31854 ft 477 kts 206°
2026-05-06 10:00 12.32245 119.97030 31859 ft 477 kts 206°
2026-05-06 10:00 12.26227 119.94164 31859 ft 477 kts 206°
2026-05-06 10:01 12.20208 119.91298 31856 ft 477 kts 206°
2026-05-06 10:01 12.14189 119.88435 31856 ft 477 kts 206°
2026-05-06 10:02 12.08207 119.85590 31856 ft 477 kts 206°
2026-05-06 10:02 12.02194 119.82733 31857 ft 477 kts 206°
2026-05-06 10:03 11.96161 119.79865 31856 ft 478 kts 206°
2026-05-06 10:03 11.90130 119.77001 31856 ft 478 kts 206°
2026-05-06 10:04 11.84096 119.74138 31856 ft 478 kts 205°
2026-05-06 10:04 11.78062 119.71275 31856 ft 478 kts 205°
2026-05-06 10:05 11.72036 119.68418 31857 ft 477 kts 206°
2026-05-06 10:05 11.66009 119.65582 31857 ft 478 kts 205°
2026-05-06 10:06 11.59953 119.62780 31856 ft 477 kts 205°
2026-05-06 10:06 11.53907 119.59981 31857 ft 478 kts 205°
2026-05-06 10:07 11.47857 119.57175 31856 ft 478 kts 205°
2026-05-06 10:07 11.41800 119.54365 31856 ft 479 kts 205°
2026-05-06 10:08 11.35733 119.51554 31857 ft 479 kts 205°
2026-05-06 10:08 11.29677 119.48750 31856 ft 478 kts 205°
2026-05-06 10:09 11.23615 119.45942 31856 ft 479 kts 205°
2026-05-06 10:09 11.17530 119.43126 31759 ft 487 kts 205°
2026-05-06 10:10 11.14418 119.41684 31522 ft 495 kts 205°
2026-05-06 10:10 11.11291 119.40237 31236 ft 492 kts 204°
2026-05-06 10:10 11.08175 119.38797 30547 ft 492 kts 204°
2026-05-06 10:10 11.05064 119.37359 29847 ft 490 kts 204°
2026-05-06 10:11 11.02003 119.35944 29095 ft 487 kts 204°
2026-05-06 10:11 10.98944 119.34530 28501 ft 480 kts 204°
2026-05-06 10:11 10.95922 119.33133 27852 ft 474 kts 204°
2026-05-06 10:11 10.92937 119.31753 27200 ft 469 kts 204°
2026-05-06 10:12 10.89973 119.30384 26502 ft 466 kts 204°
2026-05-06 10:12 10.87039 119.29029 25896 ft 461 kts 204°
2026-05-06 10:12 10.84124 119.27682 25274 ft 457 kts 204°
2026-05-06 10:12 10.81233 119.26348 24631 ft 454 kts 204°
2026-05-06 10:13 10.78363 119.25024 23991 ft 452 kts 204°
2026-05-06 10:13 10.75513 119.23709 23329 ft 449 kts 203°
2026-05-06 10:13 10.72691 119.22407 22692 ft 443 kts 203°
2026-05-06 10:13 10.69903 119.21122 22079 ft 437 kts 203°
2026-05-06 10:14 10.67156 119.19855 21462 ft 431 kts 203°
2026-05-06 10:14 10.64443 119.18604 20849 ft 425 kts 203°
2026-05-06 10:14 10.61758 119.17367 20230 ft 421 kts 203°
2026-05-06 10:14 10.59109 119.16146 19597 ft 416 kts 203°
2026-05-06 10:15 10.56489 119.14939 19003 ft 411 kts 203°
2026-05-06 10:15 10.53899 119.13745 18409 ft 406 kts 203°
2026-05-06 10:15 10.51339 119.12566 17803 ft 401 kts 203°
2026-05-06 10:15 10.48818 119.11406 17211 ft 394 kts 203°
2026-05-06 10:16 10.46340 119.10266 16649 ft 388 kts 203°
2026-05-06 10:16 10.43908 119.09147 16261 ft 377 kts 203°
2026-05-06 10:16 10.41492 119.08035 16166 ft 389 kts 203°
2026-05-06 10:16 10.39004 119.06892 16132 ft 393 kts 203°
2026-05-06 10:17 10.36517 119.05748 15777 ft 392 kts 203°
2026-05-06 10:17 10.34098 119.04443 15044 ft 397 kts 211°
2026-05-06 10:17 10.31828 119.02807 14028 ft 404 kts 216°
2026-05-06 10:17 10.29581 119.01091 13040 ft 403 kts 216°
2026-05-06 10:18 10.27367 118.99409 12015 ft 394 kts 216°
2026-05-06 10:18 10.25230 118.97797 11278 ft 380 kts 216°
2026-05-06 10:18 10.23159 118.96239 10864 ft 363 kts 216°
2026-05-06 10:18 10.21135 118.94721 10471 ft 358 kts 216°
2026-05-06 10:19 10.19180 118.93254 10301 ft 341 kts 216°
2026-05-06 10:19 10.17327 118.91866 10147 ft 322 kts 216°
2026-05-06 10:19 10.15560 118.90546 9869 ft 308 kts 215°
2026-05-06 10:19 10.13672 118.89637 9543 ft 296 kts 192°
2026-05-06 10:20 10.11626 118.89591 9426 ft 297 kts 168°
2026-05-06 10:20 10.09632 118.90151 9236 ft 299 kts 161°
2026-05-06 10:20 10.07658 118.90821 8891 ft 299 kts 160°
2026-05-06 10:20 10.05705 118.91488 8510 ft 293 kts 160°
2026-05-06 10:21 10.03792 118.92106 8155 ft 284 kts 161°
2026-05-06 10:21 10.01939 118.92676 7820 ft 274 kts 162°
2026-05-06 10:21 10.00136 118.93211 7481 ft 265 kts 162°
2026-05-06 10:21 9.98359 118.93734 7164 ft 278 kts 162°
2026-05-06 10:22 9.96431 118.94307 7014 ft 294 kts 162°
2026-05-06 10:22 9.94480 118.94888 6898 ft 289 kts 162°
2026-05-06 10:22 9.92562 118.95461 6378 ft 286 kts 162°
2026-05-06 10:22 9.90666 118.96029 5653 ft 283 kts 162°
2026-05-06 10:23 9.88804 118.96586 5160 ft 271 kts 162°
2026-05-06 10:23 9.86966 118.97135 4909 ft 286 kts 162°
2026-05-06 10:23 9.85025 118.97710 4718 ft 289 kts 162°
2026-05-06 10:23 9.83126 118.98270 4510 ft 281 kts 162°
2026-05-06 10:24 9.81212 118.98657 3967 ft 281 kts 173°
2026-05-06 10:24 9.79272 118.98662 3420 ft 277 kts 183°
2026-05-06 10:24 9.77388 118.98543 3067 ft 265 kts 182°
2026-05-06 10:24 9.75599 118.98305 2739 ft 256 kts 198°
2026-05-06 10:25 9.74108 118.97341 2678 ft 268 kts 226°
2026-05-06 10:25 9.73153 118.95728 2591 ft 275 kts 255°
2026-05-06 10:25 9.73105 118.93853 2500 ft 258 kts 280°
2026-05-06 10:25 9.73403 118.92132 2505 ft 233 kts 279°
2026-05-06 10:26 9.73569 118.90587 2493 ft 215 kts 275°
2026-05-06 10:26 9.73641 118.89102 2307 ft 206 kts 272°
2026-05-06 10:26 9.73702 118.87666 2021 ft 197 kts 274°
2026-05-06 10:26 9.73758 118.86354 1790 ft 180 kts 273°
2026-05-06 10:27 9.73811 118.85132 1549 ft 163 kts 273°
2026-05-06 10:27 9.73860 118.83994 1326 ft 160 kts 273°
2026-05-06 10:27 9.73908 118.82896 1129 ft 163 kts 273°
2026-05-06 10:27 9.73958 118.81754 935 ft 157 kts 274°
2026-05-06 10:28 9.74004 118.80639 751 ft 165 kts 274°
2026-05-06 10:28 9.74054 118.79502 534 ft 158 kts 276°
2026-05-06 10:28 9.74104 118.78384 327 ft 157 kts 273°
2026-05-06 10:28 9.74151 118.77263 109 ft 160 kts 273°
2026-05-06 10:29 9.74202 118.76163 51 ft 149 kts 272°
2026-05-06 10:29 9.74237 118.75381 62 ft 53 kts 272°
2026-05-06 10:29 9.74268 118.75255 66 ft 10 kts 325°
2026-05-06 10:29 9.74320 118.75250 61 ft 0 kts
2026-05-06 10:30 9.74170 118.76868 56 ft 159 kts 274°
2026-05-06 10:30 9.74210 118.75948 52 ft 138 kts 272°
2026-05-06 10:30 9.74154 118.77209 103 ft 160 kts 273°
2026-05-06 10:30 9.74207 118.76030 50 ft 143 kts 272°